User: anonymous   Login
Location: Fountain Hills
(33.6120°N, 111.7170°W)
Time: 04:44:14
(UTC-07:00)
Language:

Hamsat - Orbit

View from above orbital plane
View from above orbital plane
View from above satellite
View from above satellite

Ground track
Ground track

The orbit data is extracted from the following two-line orbital elements,

1 28650U 05017B   17082.92383622 +.00000452 +00000-0 +54012-4 0  9994
2 28650 097.6426 060.1986 0024893 055.1188 305.2364 14.88594517643414
Epoch (UTC): 23 March 2017 22:10:19
Eccentricity: 0.0024893
inclination: 97.6426°
perigee height: 585 km
apogee height: 620 km
right ascension of ascending node: 60.1986°
argument of perigee: 55.1188°
revolutions per day: 14.88594517
mean anomaly at epoch: 305.2364°
orbit number at epoch: 64341

The dashed part of the orbit path shows where the satellite is in the earth's shadow,  

DLR